Wind_Speed
12 11 11 10 10 10 11 10 10 10 10 11 12 12 12 10 9 9 9 10 10 10 10 10 11 12 11 12 11 11 11 11 10 10 11 11 10 9 8 8 7 7
13 12 12 10 10 10 9 10 10 10 10 10 11 11 11 10 9 9 9 9 9 9 9 9 9 10 10 11 12 12 11 11 11 11 12 12 12 11 10 9 8 8
14 13 13 11 10 10 9 10 10 11 11 10 10 10 10 10 10 9 9 9 9 9 8 8 9 9 9 10 11 11 12 12 12 12 12 13 13 12 11 11 10 9
14 14 14 13 12 11 11 11 10 10 10 9 9 9 10 10 10 10 9 8 8 8 7 8 8 9 9 9 10 10 11 11 12 12 13 13 13 13 12 12 11 10
15 15 15 15 14 13 12 11 11 10 10 9 10 10 10 10 10 10 9 9 8 7 6 7 7 8 8 9 9 10 10 11 11 11 12 13 14 14 13 13 12 11
17 17 17 16 16 15 14 13 12 12 11 10 10 10 11 10 10 10 10 9 9 8 7 7 6 6 7 8 9 9 9 10 10 10 11 13 14 14 14 13 13 12
18 18 18 18 18 17 16 15 15 14 13 12 11 11 11 11 10 10 10 10 10 9 8 8 7 6 6 6 7 8 8 9 10 9 10 12 13 14 14 14 14 13
20 19 19 19 20 19 18 17 17 16 15 14 12 12 11 11 11 11 11 11 11 10 10 9 8 7 6 6 6 7 7 8 9 9 9 10 11 12 12 13 14 14
22 21 21 21 21 21 20 19 18 17 17 15 14 13 13 12 12 12 12 12 11 11 11 10 10 9 8 7 7 6 6 7 8 8 8 9 10 10 10 11 12 12
23 22 22 22 22 22 21 21 20 19 18 17 16 15 15 14 13 13 13 12 11 11 11 10 10 10 9 9 8 7 7 7 7 7 7 8 8 9 9 9 10 11
23 23 22 22 21 22 22 22 22 21 20 19 18 17 17 16 16 16 15 13 12 11 11 10 10 10 10 10 9 9 8 8 7 7 7 7 7 8 8 8 9 10
23 23 22 21 20 20 21 23 23 23 22 21 20 19 19 18 18 17 17 15 14 14 13 12 11 11 10 10 10 10 9 9 8 8 8 8 8 8 8 8 9 10
23 23 22 22 21 20 21 22 23 23 23 22 21 20 20 19 19 18 18 17 16 16 15 14 13 13 12 11 11 11 10 10 9 9 9 9 9 9 9 9 9 9
23 23 24 24 23 23 22 23 23 23 23 23 22 22 21 20 19 19 19 18 18 17 17 16 16 15 14 13 12 11 11 11 11 11 11 11 11 11 11 11 10 10
23 24 27 27 26 26 25 25 25 25 25 25 24 24 23 22 21 21 20 20 19 19 18 18 18 17 16 15 14 14 13 13 13 13 13 12 13 13 13 13 12 11
22 24 26 28 28 27 26 26 26 25 25 25 25 25 24 24 23 23 22 21 20 20 20 19 18 17 17 17 16 16 16 16 15 15 15 15 14 14 14 14 14 13
22 23 25 27 28 27 25 25 26 26 25 24 24 24 25 25 24 24 23 22 22 22 22 21 20 18 17 17 18 18 18 18 18 17 17 17 16 16 16 15 15 15
23 24 25 27 27 26 25 26 28 28 27 26 25 24 25 25 24 23 23 22 21 21 21 22 21 20 19 19 19 20 20 20 20 19 19 19 19 18 18 17 17 17
22 23 25 26 26 25 25 27 29 29 28 28 27 26 27 27 26 24 24 23 22 21 21 21 21 21 21 21 21 21 22 22 22 21 21 21 21 20 20 19 19 18
18 20 22 24 24 25 26 27 29 28 28 29 28 27 28 29 29 28 26 25 24 23 22 21 21 20 20 21 21 21 22 23 23 23 23 22 22 21 20 19 19 19
15 17 20 21 21 22 24 26 28 28 28 30 29 28 29 30 30 30 29 28 27 25 24 23 22 21 21 20 20 21 21 23 23 24 24 23 22 22 21 20 19 19
17 18 20 20 20 20 21 24 26 27 28 29 30 28 28 29 31 31 31 31 29 26 25 24 23 23 22 22 22 22 22 23 24 24 24 24 23 22 22 22 22 22
20 20 20 21 20 19 21 22 24 25 26 26 26 25 25 27 30 32 33 34 32 27 25 26 26 26 26 25 25 24 24 25 25 25 25 24 24 23 23 23 23 24
19 20 20 21 20 20 21 22 23 23 23 23 22 22 22 24 27 30 31 32 31 27 26 27 27 27 28 27 27 26 26 26 27 27 27 27 26 25 25 24 24 24
18 19 20 20 20 20 22 23 23 23 23 23 23 23 22 22 24 26 27 28 29 27 26 26 26 27 28 28 28 28 27 28 28 29 30 29 29 28 27 26 25 25
16 17 17 18 19 19 20 21 23 23 23 24 25 25 23 23 23 25 27 29 29 27 26 26 26 28 28 29 29 29 29 29 29 29 30 31 31 31 30 29 28 27
Wind_Direction
186 187 189 190 188 190 193 187 182 183 185 186 185 182 182 181 179 181 182 180 180 182 186 190 195 198 198 200 202 202 204 204 202 204 209 213 214 212 213 215 213 214
186 189 193 195 194 196 197 194 191 188 187 188 189 188 186 184 181 182 182 181 183 186 187 190 192 194 198 203 206 209 211 213 210 208 211 216 217 216 217 219 219 220
189 190 194 196 198 199 201 201 199 194 191 191 191 189 188 188 186 184 183 185 187 188 188 191 193 194 196 202 208 212 214 218 218 214 214 217 219 220 223 225 223 224
193 192 193 196 199 200 200 202 203 200 197 197 194 189 189 191 188 183 182 185 188 188 189 193 197 199 199 202 208 212 213 217 220 219 218 220 221 223 227 231 230 229
198 197 196 197 199 202 201 200 203 204 202 203 202 196 194 193 188 184 183 185 188 191 193 195 199 202 204 206 210 215 216 218 220 220 220 221 221 223 228 233 235 235
202 200 200 200 200 202 202 200 201 203 202 205 207 204 202 199 193 189 188 188 190 194 195 196 199 203 206 206 209 215 220 221 222 223 223 222 221 223 228 233 236 238
206 204 204 204 203 202 202 201 202 201 200 204 205 204 205 204 200 197 198 198 197 199 200 201 203 207 209 207 207 213 218 221 223 225 226 223 221 223 228 232 235 237
206 206 205 207 207 204 202 203 203 202 202 203 202 203 204 204 205 205 206 208 206 205 206 207 209 211 213 213 212 214 217 218 221 224 225 221 220 224 230 234 235 235
209 207 206 206 208 207 205 204 204 204 205 205 203 204 204 202 206 210 212 213 213 213 213 212 213 215 216 218 220 221 221 220 220 223 225 221 220 225 231 235 236 235
213 212 211 210 208 208 206 206 207 207 208 207 206 208 207 205 206 209 213 215 216 218 219 218 218 219 219 221 222 224 226 227 225 225 227 225 224 228 232 234 235 235
217 217 218 217 215 212 209 208 209 210 210 210 210 211 211 210 209 209 211 213 214 218 220 221 225 226 224 224 224 226 228 232 233 232 232 230 228 232 235 236 236 237
222 222 223 223 223 222 218 214 213 213 214 214 215 216 216 215 214 212 212 212 213 215 215 216 223 228 229 227 226 227 228 232 235 237 239 238 237 237 238 239 238 237
225 227 228 227 227 229 229 226 221 217 217 218 220 222 223 222 220 218 216 215 216 217 216 214 216 220 226 229 229 229 228 230 233 234 237 240 243 244 243 242 242 241
228 230 231 230 229 229 232 234 233 227 221 220 222 226 228 229 229 227 224 222 221 222 221 220 217 216 218 223 228 231 231 232 234 234 233 234 237 242 245 245 244 244
230 231 230 229 228 227 228 231 233 231 226 221 221 223 225 229 231 232 231 228 227 227 226 226 225 221 219 219 222 227 230 232 235 237 236 234 233 235 240 245 247 248
229 231 230 230 229 229 230 230 231 231 228 225 224 223 222 224 227 230 232 232 232 232 232 232 232 230 228 226 225 225 227 229 232 235 238 237 236 235 236 240 244 247
229 230 232 232 232 233 234 235 234 232 229 229 229 228 226 225 225 227 230 232 234 234 235 235 235 236 236 237 236 234 231 230 229 231 234 237 238 238 237 238 239 242
229 229 231 232 233 234 234 234 234 232 230 231 231 233 234 231 228 227 228 230 233 234 236 235 233 232 233 236 239 241 241 240 236 233 233 235 236 236 236 237 238 239
227 227 229 231 233 235 234 235 237 236 235 232 229 231 236 235 231 228 226 228 231 231 232 234 233 231 230 232 235 239 244 247 247 244 241 238 237 236 236 237 238 240
230 230 231 231 232 234 236 239 241 240 240 236 231 231 233 232 231 230 226 224 228 230 231 232 234 236 235 235 236 238 243 248 251 253 253 250 247 245 244 244 244 246
227 233 233 231 231 234 238 241 241 240 239 239 237 236 233 229 229 232 231 228 227 228 233 235 237 239 241 241 241 242 244 249 252 256 259 260 259 257 256 256 256 255
219 229 233 232 232 235 239 241 241 239 237 236 235 235 234 233 233 234 237 239 235 229 232 239 242 244 245 245 247 247 246 248 251 253 256 259 260 260 260 261 262 263
222 230 234 235 234 235 235 235 236 238 238 235 234 233 235 240 243 241 242 246 244 237 236 243 247 248 248 249 250 250 248 248 249 251 253 254 255 256 256 257 259 261
226 231 234 238 241 245 245 241 239 241 244 242 240 237 235 238 244 246 246 248 247 242 241 245 247 247 248 250 253 254 252 250 250 251 252 253 253 253 253 253 253 255
228 231 235 240 245 251 255 255 253 251 250 248 246 244 242 242 245 247 246 246 246 243 241 243 246 247 248 251 254 256 255 253 252 250 250 251 252 252 251 251 251 252
230 234 238 242 246 249 253 257 260 260 257 253 251 250 247 247 249 249 246 243 243 242 243 245 247 248 249 250 253 255 257 258 256 253 250 250 251 252 252 252 253 254
Height
3230 3231 3232 3233 3234 3235 3236 3237 3238 3239 3240 3241 3241 3242 3243 3244 3245 3246 3247 3247 3248 3249 3249 3250 3251 3251 3252 3253 3253 3254 3254 3255 3256 3257 3258 3258 3259 3260 3261 3261 3262 3262
3229 3230 3231 3232 3234 3235 3236 3237 3238 3238 3239 3240 3241 3242 3242 3243 3244 3245 3246 3247 3248 3249 3249 3250 3250 3251 3251 3252 3252 3253 3254 3254 3255 3256 3257 3258 3259 3259 3260 3261 3261 3262
3228 3230 3231 3232 3233 3235 3236 3237 3238 3238 3239 3240 3241 3241 3242 3243 3244 3245 3246 3247 3248 3248 3249 3249 3250 3250 3250 3251 3252 3253 3253 3254 3254 3255 3256 3257 3258 3259 3259 3260 3261 3262
3228 3229 3230 3231 3233 3234 3235 3236 3237 3238 3239 3240 3240 3241 3242 3243 3243 3244 3245 3246 3247 3248 3248 3249 3249 3250 3250 3251 3251 3252 3253 3253 3254 3254 3255 3256 3257 3258 3259 3259 3260 3261
3227 3228 3229 3231 3232 3233 3234 3235 3236 3237 3238 3239 3240 3240 3241 3242 3243 3243 3244 3245 3246 3247 3248 3248 3249 3249 3250 3250 3251 3251 3252 3252 3253 3254 3254 3255 3256 3257 3258 3259 3259 3260
3226 3227 3228 3229 3230 3232 3233 3234 3235 3236 3237 3238 3239 3240 3241 3241 3242 3243 3243 3244 3245 3246 3247 3248 3248 3249 3249 3250 3250 3251 3251 3252 3252 3253 3253 3254 3255 3256 3257 3258 3258 3259
3225 3226 3227 3228 3229 3230 3232 3233 3234 3235 3236 3237 3238 3239 3240 3241 3241 3242 3243 3243 3244 3245 3246 3247 3248 3249 3249 3250 3250 3251 3251 3251 3252 3252 3252 3253 3254 3255 3256 3257 3257 3258
3223 3225 3226 3227 3228 3229 3231 3232 3233 3234 3235 3236 3237 3238 3239 3240 3241 3241 3242 3243 3243 3244 3245 3246 3247 3248 3248 3249 3250 3250 3251 3251 3251 3252 3252 3252 3253 3254 3255 3255 3256 3257
3222 3223 3224 3225 3226 3228 3230 3231 3232 3234 3235 3236 3237 3237 3238 3239 3240 3240 3241 3242 3242 3243 3244 3245 3246 3247 3247 3248 3249 3249 3250 3251 3251 3251 3252 3252 3252 3253 3254 3254 3255 3256
3221 3222 3223 3224 3225 3227 3228 3230 3231 3232 3234 3235 3236 3237 3237 3238 3239 3240 3240 3241 3242 3242 3243 3244 3245 3245 3246 3247 3248 3248 3249 3250 3251 3251 3251 3252 3252 3252 3253 3253 3254 3255
3219 3221 3222 3224 3225 3227 3228 3229 3230 3231 3233 3234 3235 3236 3237 3238 3238 3239 3239 3240 3241 3242 3242 3243 3244 3244 3245 3246 3247 3247 3248 3249 3250 3250 3251 3251 3251 3252 3252 3253 3253 3254
3218 3220 3222 3224 3225 3227 3228 3229 3229 3230 3232 3233 3234 3236 3236 3237 3238 3238 3238 3239 3240 3240 3241 3242 3242 3243 3244 3245 3246 3246 3247 3248 3248 3249 3250 3250 3251 3251 3251 3252 3252 3253
3216 3219 3221 3223 3224 3226 3227 3229 3229 3230 3231 3232 3233 3235 3236 3237 3237 3237 3238 3238 3238 3239 3239 3240 3241 3242 3243 3243 3244 3245 3246 3246 3247 3248 3248 3249 3249 3250 3250 3251 3251 3251
3215 3217 3219 3220 3222 3223 3225 3227 3228 3229 3229 3230 3231 3232 3234 3235 3236 3237 3237 3237 3237 3238 3238 3239 3239 3240 3241 3242 3242 3243 3244 3245 3246 3246 3247 3247 3248 3248 3249 3249 3250 3250
3213 3214 3216 3217 3218 3220 3221 3223 3225 3226 3227 3227 3227 3228 3230 3232 3233 3235 3235 3236 3236 3237 3237 3237 3238 3238 3239 3240 3240 3241 3242 3243 3244 3244 3245 3246 3246 3247 3247 3248 3248 3249
3210 3212 3213 3214 3215 3216 3218 3221 3222 3224 3226 3226 3226 3226 3227 3228 3229 3231 3233 3234 3235 3235 3236 3236 3236 3237 3238 3239 3239 3239 3240 3240 3241 3242 3243 3243 3244 3245 3245 3246 3247 3247
3208 3210 3211 3212 3213 3215 3218 3220 3221 3223 3224 3225 3226 3226 3226 3226 3227 3228 3230 3231 3232 3233 3234 3234 3235 3236 3237 3237 3238 3238 3238 3238 3239 3240 3240 3241 3242 3242 3243 3244 3245 3245
3206 3208 3209 3210 3211 3214 3217 3218 3218 3219 3221 3222 3224 3226 3226 3225 3225 3226 3227 3229 3230 3231 3232 3232 3233 3233 3234 3234 3235 3236 3236 3236 3237 3237 3237 3238 3239 3240 3241 3242 3242 3243
3204 3205 3207 3208 3210 3212 3214 3215 3216 3218 3220 3221 3221 3223 3224 3224 3224 3224 3225 3226 3227 3228 3229 3230 3231 3231 3231 3231 3232 3233 3234 3234 3235 3235 3235 3236 3236 3237 3238 3239 3240 3240
3202 3203 3205 3206 3208 3210 3211 3212 3214 3216 3219 3219 3219 3219 3220 3221 3221 3222 3222 3223 3224 3225 3226 3227 3228 3229 3229 3229 3230 3231 3231 3231 3232 3233 3233 3234 3234 3235 3236 3237 3238 3239
3200 3201 3202 3204 3206 3207 3208 3209 3210 3212 3214 3215 3216 3216 3217 3218 3218 3219 3220 3221 3221 3222 3224 3225 3225 3226 3227 3228 3228 3229 3229 3229 3230 3230 3231 3232 3233 3233 3234 3235 3236 3236
3197 3199 3200 3201 3203 3205 3205 3206 3207 3209 3210 3211 3211 3212 3214 3215 3216 3217 3219 3219 3219 3219 3220 3222 3222 3223 3224 3224 3225 3226 3226 3227 3227 3227 3228 3229 3230 3231 3231 3232 3233 3233
3195 3196 3198 3199 3201 3202 3204 3204 3205 3206 3207 3207 3208 3208 3210 3213 3215 3216 3217 3218 3217 3216 3216 3218 3219 3219 3219 3220 3221 3222 3223 3224 3224 3225 3225 3226 3227 3227 3228 3228 3229 3230
3193 3194 3195 3196 3197 3199 3200 3201 3202 3202 3203 3203 3203 3204 3205 3208 3210 3212 3214 3216 3215 3213 3212 3214 3214 3215 3216 3216 3217 3218 3219 3220 3221 3222 3223 3223 3224 3224 3225 3225 3226 3226
3191 3192 3192 3193 3194 3195 3196 3197 3198 3198 3199 3200 3200 3200 3201 3203 3205 3208 3209 3211 3211 3210 3209 3210 3210 3211 3212 3213 3214 3215 3215 3216 3217 3218 3219 3219 3220 3221 3222 3222 3223 3223
3189 3190 3191 3192 3193 3194 3194 3194 3194 3195 3196 3198 3198 3198 3199 3201 3202 3204 3204 3205 3206 3205 3204 3205 3206 3207 3209 3210 3211 3211 3212 3212 3213 3214 3214 3215 3216 3217 3218 3219 3219 3220